Location: Aydie
(43.5695°N, 0.1043°W)
Time: 12:17:12
(UTC+00:00)

AQUARIUS - Pass Details

Date: 17 November 2025
Orbit: 634 x 636 km, 98.0° (Epoch: 11 December)

Event Time Altitude Azimuth Distance (km) Brightness Sun altitude
Rises 17:19:08 0° 151° (SSE) 2,921 7.4 -8.5°
Reaches altitude 10° 17:21:22 10° 145° (SE) 2,017 6.5 -8.9°
Maximum altitude 17:25:35 48° 72° (ENE) 838 4.3 -9.6°
Drops below altitude 10° 17:29:50 10° 358° (N) 2,031 6.6 -10.3°
Sets 17:32:05 0° 353° (N) 2,943 7.4 -10.7°
